Location: Aufkirchen
(47.9603°N, 11.3653°E)
Time: 15:45:44
(UTC+01:00)

Courier 1B Rocket - Pass Details

Date: 05 December 2020
Orbit: 920 x 1202 km, 28.2° (Epoch: 17 January)

Event Time Altitude Azimuth Distance (km) Brightness Sun altitude
Exits shadow 06:18:27 - 239° (WSW) 3,856 7.7 -14.3°
Reaches altitude 10° 06:21:50 10° 222° (SW) 3,123 7.4 -13.8°
Maximum altitude 06:26:00 15° 189° (S) 2,732 7.5 -13.1°
Drops below altitude 10° 06:30:11 10° 156° (SSE) 3,117 8.3 -12.5°
Sets 06:34:23 0° 135° (SE) 4,055 9.5 -11.8°
